Regional Weather Roundup
Issued by NWS

Home | Current Version | Previous Version | Text Only | Print | Product List | Glossary Off
Versions: 1 2 3 4 5 6 7 8 9 10 11 12 13 14 15 16 17 18 19 20 21 22 23 24 25 26 27 28 29 30 31 32 33 34 35 36 37 38 39 40 41 42 43 44 45 46 47 48 49 50

000
ASUS43 KLSX 190510
RWRMO

WEATHER SUMMARY FOR MISSOURI
NATIONAL WEATHER SERVICE SPRINGFIELD MO
1100 PM CST SAT FEB 18 2017

NOTE: "FAIR" INDICATES FEW OR NO CLOUDS BELOW 12,000 FEET WITH NO
       SIGNIFICANT WEATHER AND/OR OBSTRUCTIONS TO VISIBILITY.
       CURRENT SKY AND/OR WEATHER CONDITIONS ARE NOT AVAILABLE FOR
       CHILLICOTHE AND FARMINGTON.

MOZ001>031-035>038-043-044-053-054-190600-
...NORTHERN AND WESTERN MISSOURI...

CITY           SKY/WX    TMP DP  RH WIND       PRES   REMARKS
KANSAS CTY INT CLEAR     51  45  79 S8        29.86R
KANSAS C DTWN  CLEAR     57  48  72 SW5       29.85R
LEE`S SUMMIT   CLEAR     54  48  80 S10       29.87R
ST JOSEPH      CLOUDY    43  36  76 CALM      29.85R
CHILLICOTHE      N/A     40  34  79 CALM      29.86S
KIRKSVILLE     CLEAR     40  34  79 CALM      29.87R

$$
MOZ066>068-077>081-088>096-101>105-190600-
...SOUTHWEST MISSOURI...

CITY           SKY/WX    TMP DP  RH WIND       PRES   REMARKS
SPRINGFIELD    CLEAR     46  44  93 S5        29.91R FOG
JOPLIN         CLEAR     49  48  97 SE5       29.93R
BRANSON        PTCLDY    50  46  87 CALM      29.93R

$$
MOZ032>034-039>042-045>050-055>058-069>072-190600-
...CENTRAL MISSOURI...

CITY           SKY/WX    TMP DP  RH WIND       PRES   REMARKS
COLUMBIA       CLEAR     54  45  71 CALM      29.87S
JEFFERSON CITY CLEAR     44  40  85 SE6       29.88R
ROLLA          CLEAR     51  48  89 S10       29.89R
SEDALIA        CLEAR     55  47  74 S9        29.87S
WHITEMAN AFB   CLEAR     50  50 100 SW7       29.86R
WARRENSBURG    CLEAR     52  46  82 S7        29.86R
OSAGE BEACH    CLEAR     54  46  74 S3        29.90R

$$
MOZ051-052-059>065-190600-
...EAST CENTRAL MISSOURI...

CITY           SKY/WX    TMP DP  RH WIND       PRES   REMARKS
ST LOUIS INTL  CLEAR     50  46  86 SE3       29.90R
SPIRIT OF STL  CLEAR     48  47  96 W3        29.89R
ST CHARLES     FOG       40  40 100 E3        29.89R VSB 1/2

$$
MOZ072>076-082>087-097>100-106>115-190600-
...SOUTH CENTRAL AND SOUTHEAST MISSOURI...

CITY           SKY/WX    TMP DP  RH WIND       PRES   REMARKS
CAPE GIRARDEAU CLOUDY    50  49  96 SW3       29.95S FOG
FARMINGTON     CLOUDY    52  51  97 S10       29.93R
POPLAR BLUFF   FOG       48  48 100 NE3       29.94S VSB 1/4
WEST PLAINS    FOG       50  49  96 CALM      29.94R VSB 1/4

$$




USA.gov is the U.S. government's official web portal to all federal, state and local government web resources and services.